, CO

(GMT )
Cottonwood Pass

Weather History for K7BM - July, 2013

Change the Weather History Date:

Wednesday, July 24, 2013

  Actual Average Record
Temperature  
Mean Temperature 60 °F -  
Max Temperature 66 °F - - ()
Min Temperature 55 °F - - ()
Degree Days  
Heating Degree Days 4    
Growing Degree Days 10 (Base 50)    
Moisture  
Dew Point 42 °F    
Average Humidity 51    
Maximum Humidity 68    
Minimum Humidity 28    
Precipitation  
Precipitation 0.00 in - - ()
Sea Level Pressure  
Sea Level Pressure 30.53 in    
Wind  
Wind Speed 4 mph (SSE)    
Max Wind Speed 39 mph    
Max Gust Speed 58 mph    
Visibility 10 miles    
Events Rain , Thunderstorm    
T = Trace of Precipitation, MM = Missing Value Source: NWS Daily Summary

Daily Weather History Graph

Daily Weather History Graph

Search for Another Location

Airport or City:

Trip Planner

Search our weather history database for the weather conditions in past years. The results will help you decide how hot, cold, wet, or windy it might be!

Date:

Astronomy

Jul. 24, 2013 Rise Set
Actual Time 5:59 AM MDT 8:22 PM MDT
Civil Twilight 5:29 AM MDT 8:53 PM MDT
Nautical Twilight 4:51 AM MDT 9:30 PM MDT
Astronomical Twilight 4:10 AM MDT 10:11 PM MDT
Moon 9:32 PM MDT (7/24) 8:20 AM MDT (7/24)
Length of Visible Light 15h 23m
Length of Day
14h 23m
Waning Gibbous, 94% of the Moon is Illuminated
Jul 24
Waning Gibbous
Jul 29
Last Quarter
Aug 6
New
Aug 14
First Quarter
Aug 20
Full

Hourly Weather History & Observations

Time (MDT) Temp. Dew Point Humidity Pressure Visibility Wind Dir Wind Speed Gust Speed Precip Events Conditions
12:14 AM 66.2 °F 32.0 °F 28% 30.55 in 10.0 mi SE 3.5 mph - N/A   Clear
12:34 AM 64.4 °F 32.0 °F 30% 30.55 in 10.0 mi Calm Calm - N/A   Clear
12:54 AM 62.6 °F 33.8 °F 34% 30.55 in 10.0 mi Calm Calm - N/A   Clear
1:14 AM 64.4 °F 32.0 °F 30% 30.55 in 10.0 mi WSW 3.5 mph - N/A   Clear
1:34 AM 64.4 °F 33.8 °F 32% 30.54 in 10.0 mi SSE 4.6 mph - N/A   Clear
1:54 AM 62.6 °F 33.8 °F 34% 30.54 in 10.0 mi SE 3.5 mph - N/A   Clear
2:14 AM 62.6 °F 35.6 °F 37% 30.53 in 10.0 mi SSE 3.5 mph - N/A   Clear
2:34 AM 62.6 °F 35.6 °F 37% 30.52 in 10.0 mi SSE 5.8 mph - N/A   Clear
2:54 AM 60.8 °F 37.4 °F 42% 30.52 in 10.0 mi SE 4.6 mph - N/A   Clear
3:14 AM 60.8 °F 35.6 °F 39% 30.52 in 10.0 mi Calm Calm - N/A   Clear
3:34 AM 60.8 °F 35.6 °F 39% 30.52 in 10.0 mi Calm Calm - N/A   Clear
3:54 AM 59.0 °F 35.6 °F 42% 30.53 in 10.0 mi Calm Calm - N/A   Clear
4:13 AM 59.0 °F 35.6 °F 42% 30.53 in 10.0 mi Calm Calm - N/A   Clear
4:34 AM 59.0 °F 37.4 °F 45% 30.52 in 10.0 mi Calm Calm - N/A   Clear
4:54 AM 60.8 °F 37.4 °F 42% 30.53 in 10.0 mi Calm Calm - N/A   Clear
5:14 AM 60.8 °F 37.4 °F 42% 30.53 in 10.0 mi West 6.9 mph - N/A   Clear
5:34 AM 60.8 °F 35.6 °F 39% 30.53 in 10.0 mi West 8.1 mph - N/A   Clear
5:54 AM 60.8 °F 37.4 °F 42% 30.54 in 10.0 mi South 4.6 mph - N/A   Clear
6:13 AM 60.8 °F 42.8 °F 52% 30.54 in 10.0 mi Calm Calm - N/A   Clear
6:34 AM 59.0 °F 42.8 °F 55% 30.54 in 10.0 mi Calm Calm - N/A   Clear
6:54 AM 60.8 °F 37.4 °F 42% 30.54 in 10.0 mi Calm Calm - N/A   Clear
7:14 AM 57.2 °F 42.8 °F 59% 30.55 in 10.0 mi East 3.5 mph - N/A   Clear
7:34 AM 59.0 °F 42.8 °F 55% 30.55 in 10.0 mi Calm Calm - N/A   Clear
7:54 AM 59.0 °F 42.8 °F 55% 30.55 in 10.0 mi Calm Calm - N/A   Clear
8:13 AM 59.0 °F 44.6 °F 59% 30.55 in 10.0 mi Calm Calm - N/A   Clear
8:34 AM 59.0 °F 44.6 °F 59% 30.55 in 10.0 mi Calm Calm - N/A   Clear
8:54 AM 60.8 °F 44.6 °F 55% 30.55 in 10.0 mi Calm Calm - N/A   Clear
9:13 AM 62.6 °F 44.6 °F 52% 30.54 in 10.0 mi Calm Calm - N/A   Clear
9:34 AM 64.4 °F 44.6 °F 49% 30.54 in 10.0 mi Calm Calm - N/A   Clear
9:54 AM 62.6 °F 44.6 °F 52% 30.55 in 10.0 mi ESE 3.5 mph - N/A   Clear
10:14 AM 62.6 °F 48.2 °F 59% 30.55 in 10.0 mi Calm Calm - N/A   Clear
10:34 AM 62.6 °F 50.0 °F 63% 30.55 in 10.0 mi East 3.5 mph - N/A   Scattered Clouds
10:54 AM 64.4 °F 51.8 °F 64% 30.55 in 10.0 mi Calm Calm - N/A   Scattered Clouds
11:14 AM 64.4 °F 51.8 °F 64% 30.54 in 10.0 mi ESE 5.8 mph - N/A   Scattered Clouds
11:34 AM 66.2 °F 51.8 °F 60% 30.54 in 10.0 mi ESE 5.8 mph - N/A   Mostly Cloudy
11:54 AM 66.2 °F 51.8 °F 60% 30.54 in 10.0 mi SE 5.8 mph - N/A   Mostly Cloudy
12:14 PM 64.4 °F 50.0 °F 59% 30.53 in 10.0 mi ESE 3.5 mph - N/A   Overcast
12:33 PM 62.6 °F 51.8 °F 68% 30.54 in 10.0 mi Calm Calm - N/A Rain , Thunderstorm Light Thunderstorms and Rain
12:54 PM 60.8 °F 46.4 °F 59% 30.53 in 10.0 mi West 12.7 mph 23.0 mph N/A Thunderstorm Thunderstorm
1:14 PM 57.2 °F 41.0 °F 55% 30.54 in 10.0 mi WSW 39.1 mph 51.8 mph N/A Rain Light Rain
1:34 PM 57.2 °F 41.0 °F 55% 30.55 in 7.0 mi WSW 38.0 mph 57.5 mph N/A Rain , Thunderstorm Light Thunderstorms and Rain
1:54 PM 55.4 °F 42.8 °F 63% 30.59 in 7.0 mi West 19.6 mph 31.1 mph N/A Rain , Thunderstorm Light Thunderstorms and Rain
2:14 PM 55.4 °F 42.8 °F 63% 30.56 in 10.0 mi West 23.0 mph 35.7 mph N/A Rain , Thunderstorm Light Thunderstorms and Rain
2:34 PM 59.0 °F 42.8 °F 55% 30.54 in 10.0 mi West 9.2 mph 18.4 mph N/A Thunderstorm Overcast
2:54 PM 60.8 °F 41.0 °F 48% 30.52 in 10.0 mi West 17.3 mph 24.2 mph N/A   Mostly Cloudy
3:14 PM 64.4 °F 42.8 °F 45% 30.53 in 10.0 mi South 6.9 mph 18.4 mph N/A   Scattered Clouds
3:34 PM 66.2 °F 41.0 °F 40% 30.52 in 10.0 mi NNW 3.5 mph - N/A   Scattered Clouds
3:54 PM 64.4 °F 42.8 °F 45% 30.53 in 10.0 mi SE 11.5 mph 17.3 mph N/A   Mostly Cloudy
4:14 PM 64.4 °F 42.8 °F 45% 30.53 in 10.0 mi SE 11.5 mph 19.6 mph N/A   Mostly Cloudy
4:34 PM 62.6 °F 44.6 °F 52% 30.53 in 10.0 mi SE 8.1 mph - N/A   Mostly Cloudy
4:54 PM 62.6 °F 44.6 °F 52% 30.53 in 10.0 mi ESE 4.6 mph - N/A   Overcast
5:14 PM 62.6 °F 42.8 °F 48% 30.54 in 10.0 mi Calm Calm - N/A   Overcast
5:34 PM 62.6 °F 44.6 °F 52% 30.53 in 10.0 mi Calm Calm - N/A   Overcast
5:53 PM 62.6 °F 46.4 °F 55% 30.51 in 10.0 mi SE 9.2 mph - N/A   Overcast
6:14 PM 62.6 °F 44.6 °F 52% 30.49 in 10.0 mi SE 5.8 mph - N/A   Mostly Cloudy
6:34 PM 62.6 °F 42.8 °F 48% 30.49 in 10.0 mi ESE 4.6 mph - N/A   Scattered Clouds
6:54 PM 62.6 °F 42.8 °F 48% 30.49 in 10.0 mi ESE 4.6 mph - N/A   Clear
7:14 PM 60.8 °F 44.6 °F 55% 30.49 in 10.0 mi SE 8.1 mph - N/A   Clear
7:34 PM 59.0 °F 44.6 °F 59% 30.50 in 10.0 mi SE 8.1 mph - N/A   Clear
7:54 PM 59.0 °F 44.6 °F 59% 30.50 in 10.0 mi SE 5.8 mph - N/A   Clear
8:14 PM 59.0 °F 42.8 °F 55% 30.50 in 10.0 mi SE 3.5 mph - N/A   Clear
8:33 PM 59.0 °F 42.8 °F 55% 30.51 in 10.0 mi West 4.6 mph - N/A   Clear
8:54 PM 59.0 °F 42.8 °F 55% 30.51 in 10.0 mi WSW 5.8 mph - N/A   Clear
9:14 PM 59.0 °F 42.8 °F 55% 30.52 in 10.0 mi West 4.6 mph - N/A   Mostly Cloudy
9:34 PM 59.0 °F 44.6 °F 59% 30.52 in 10.0 mi SW 3.5 mph - N/A   Mostly Cloudy
9:53 PM 57.2 °F 44.6 °F 63% 30.52 in 10.0 mi West 5.8 mph - N/A   Mostly Cloudy
10:13 PM 59.0 °F 42.8 °F 55% 30.52 in 10.0 mi West 3.5 mph - N/A   Mostly Cloudy
10:34 PM 59.0 °F 42.8 °F 55% 30.51 in 10.0 mi West 3.5 mph - N/A   Scattered Clouds
10:54 PM 57.2 °F 44.6 °F 63% 30.51 in 10.0 mi East 3.5 mph - N/A   Mostly Cloudy
11:14 PM 55.4 °F 42.8 °F 63% 30.51 in 10.0 mi Calm Calm - N/A   Mostly Cloudy
11:34 PM 57.2 °F 42.8 °F 59% 30.51 in 10.0 mi Calm Calm - N/A   Mostly Cloudy
11:54 PM 55.4 °F 44.6 °F 67% 30.50 in 10.0 mi East 4.6 mph - N/A   Mostly Cloudy